TMCAT11 KNKX-KNKX

Flight info

Callsign TMCAT11
Flight time N/A
Altitude 3000
Route RDR
Aircraft F35/M-SDFIRY/LB1

Departure

Time 2026-04-26 23:02
Airport Miramar Marine Corps Air Station - Mitscher Field (KNKX)

Arrival

Time N/A
Airport Miramar Marine Corps Air Station - Mitscher Field (KNKX)
Time Latitude Longitude Altitude Speed Heading
2026-04-26 22:18 32.87512 -117.13117 436 ft 0 kts 51°
2026-04-26 22:29 32.87531 -117.12853 443 ft 47 kts 89°
2026-04-26 22:29 32.87599 -117.12789 436 ft 7 kts 257°
2026-04-26 22:29 32.87596 -117.12798 443 ft 0 kts 248°
2026-04-26 23:00 32.87553 -117.12816 443 ft 30 kts 173°
2026-04-26 23:00 32.87375 -117.12763 449 ft 2 kts 167°
2026-04-26 23:00 32.87365 -117.12760 450 ft 1 kts 166°
2026-04-26 23:01 32.87282 -117.12744 453 ft 14 kts 212°
2026-04-26 23:02 32.87259 -117.12838 452 ft 61 kts 258°
2026-04-26 23:02 32.86987 -117.14049 456 ft 224 kts 255°
2026-04-26 23:02 32.86508 -117.16125 1298 ft 313 kts 253°
2026-04-26 23:02 32.85798 -117.18829 2074 ft 348 kts 252°
2026-04-26 23:03 32.85045 -117.21572 2620 ft 349 kts 251°
2026-04-26 23:03 32.84277 -117.24313 2843 ft 354 kts 251°
2026-04-26 23:03 32.83496 -117.27083 2956 ft 350 kts 250°
2026-04-26 23:03 32.82296 -117.29584 3116 ft 352 kts 226°
2026-04-26 23:04 32.80254 -117.31170 3432 ft 357 kts 200°
2026-04-26 23:04 32.78013 -117.31418 4075 ft 287 kts 170°
2026-04-26 23:04 32.76272 -117.30334 4851 ft 295 kts 137°
2026-04-26 23:04 32.75218 -117.28250 5522 ft 304 kts 106°
2026-04-26 23:05 32.74891 -117.25752 5845 ft 306 kts 95°
2026-04-26 23:05 32.74771 -117.23217 5974 ft 307 kts 92°
2026-04-26 23:05 32.74718 -117.20713 6021 ft 306 kts 92°
2026-04-26 23:05 32.74695 -117.18142 6052 ft 306 kts 91°
2026-04-26 23:06 32.74684 -117.15652 6073 ft 308 kts 91°
2026-04-26 23:06 32.74679 -117.13113 6079 ft 309 kts 91°
2026-04-26 23:06 32.74680 -117.10570 6082 ft 308 kts 91°
2026-04-26 23:06 32.74685 -117.08029 6072 ft 307 kts 91°
2026-04-26 23:07 32.74695 -117.05484 6067 ft 308 kts 91°
2026-04-26 23:07 32.74709 -117.02941 6064 ft 308 kts 91°
2026-04-26 23:07 32.74726 -117.00401 6063 ft 307 kts 91°
2026-04-26 23:07 32.74745 -116.97858 6075 ft 306 kts 91°
2026-04-26 23:08 32.74762 -116.95311 6070 ft 309 kts 91°
2026-04-26 23:08 32.74779 -116.92750 6062 ft 308 kts 91°
2026-04-26 23:08 32.74795 -116.90202 6066 ft 309 kts 90°
2026-04-26 23:08 32.74809 -116.87662 6081 ft 311 kts 91°
2026-04-26 23:09 32.74820 -116.85108 6111 ft 309 kts 90°
2026-04-26 23:09 32.74833 -116.82564 6072 ft 308 kts 91°
2026-04-26 23:09 32.74846 -116.80010 6083 ft 311 kts 91°
2026-04-26 23:09 32.74908 -116.77486 6063 ft 308 kts 81°
2026-04-26 23:10 32.75751 -116.75146 6080 ft 310 kts 50°
2026-04-26 23:10 32.77420 -116.73542 6089 ft 311 kts 27°
2026-04-26 23:10 32.79326 -116.72353 6086 ft 309 kts 23°
2026-04-26 23:10 32.81268 -116.71267 6086 ft 308 kts 22°
2026-04-26 23:11 32.83221 -116.70224 6079 ft 307 kts 21°
2026-04-26 23:11 32.85182 -116.69197 6068 ft 308 kts 21°
2026-04-26 23:11 32.87146 -116.68196 6097 ft 306 kts 16°
2026-04-26 23:11 32.89220 -116.67951 5743 ft 293 kts 345°
2026-04-26 23:12 32.91012 -116.68993 5666 ft 285 kts 313°
2026-04-26 23:12 32.92168 -116.70848 5629 ft 278 kts 290°
2026-04-26 23:12 32.92712 -116.73041 5606 ft 277 kts 278°
2026-04-26 23:12 32.92927 -116.75310 5582 ft 276 kts 271°
2026-04-26 23:13 32.92958 -116.77591 5554 ft 277 kts 267°
2026-04-26 23:13 32.92831 -116.79869 5524 ft 274 kts 259°
2026-04-26 23:13 32.92431 -116.82106 5533 ft 276 kts 255°
2026-04-26 23:13 32.92004 -116.84348 5333 ft 281 kts 258°
2026-04-26 23:14 32.91680 -116.86579 4620 ft 268 kts 260°
2026-04-26 23:14 32.91346 -116.88747 4198 ft 270 kts 258°
2026-04-26 23:14 32.90974 -116.90928 4006 ft 269 kts 258°
2026-04-26 23:14 32.90594 -116.93107 3957 ft 268 kts 258°
2026-04-26 23:15 32.90260 -116.95288 3908 ft 269 kts 260°
2026-04-26 23:15 32.89935 -116.97461 3874 ft 271 kts 258°
2026-04-26 23:15 32.89565 -116.99648 3559 ft 267 kts 258°
2026-04-26 23:15 32.89197 -117.01778 3033 ft 247 kts 258°
2026-04-26 23:16 32.88906 -117.03433 2452 ft 171 kts 257°
2026-04-26 23:16 32.88690 -117.04784 1982 ft 164 kts 258°
2026-04-26 23:16 32.88483 -117.06140 1558 ft 174 kts 261°
2026-04-26 23:16 32.88270 -117.07540 1250 ft 172 kts 256°